Location: Goulburn
(34.7479°S, 149.7277°E)
Time: 07:42:57
(UTC+11:00)

LightSail 2 - Pass Details

Date: 23 October 2019
Orbit: 701 x 726 km, 24.0° (Epoch: 13 November)

Event Time Altitude Azimuth Distance (km) Brightness Sun altitude
Exits shadow 03:30:49 14° 51° (NE) 1,978 7.5 -29.7°
Drops below altitude 10° 03:31:42 10° 58° (ENE) 2,217 7.8 -29.6°
Sets 03:34:35 0° 72° (ENE) 3,136 8.9 -29.1°
